Regional Weather Roundup
Issued by NWS Mt. Holly, NJ

Home | Current Version | Previous Version | Text Only | Print | Product List | Glossary On
Versions: 1 2 3 4 5 6 7 8 9 10 11 12 13 14 15 16 17 18 19 20 21 22 23 24 25 26 27 28 29 30 31 32 33 34 35 36 37 38 39 40 41 42 43 44 45 46 47 48 49 50
000
ASUS41 KPHI 231012
RWRPHI

REGIONAL WEATHER ROUNDUP
NATIONAL WEATHER SERVICE MOUNT HOLLY NJ
500 AM EST THU FEB 23 2017

NOTE:  "FAIR" INDICATES FEW OR NO CLOUDS BELOW 12,000 FEET WITH NO
SIGNIFICANT WEATHER AND/OR OBSTRUCTIONS TO VISIBILITY.

 * = STATION DOES NOT REPORT PRECIPITATION (E.G. RAIN, SNOW, ETC.)
        OR FOG.

NJZ015>026-231100-
SOUTHERN NEW JERSEY

CITY           SKY/WX    TMP DP  RH WIND       PRES   REMARKS
POMONA         FOG       45  43  93 CALM      29.90S VSB 1/4
MILLVILLE      FOG       45  45 100 CALM      29.89S VSB 1/2
WRIGHTSTOWN    FOG       47  46  98 SW5       29.87R VSB 1/4
MOUNT HOLLY    FOG       48  48 100 CALM      29.89S VSB 1/4
TRENTON        FOG       41  41 100 S3        29.88S VSB 1/4

$$
NJZ001>014-231100-
NORTHERN NEW JERSEY

CITY           SKY/WX    TMP DP  RH WIND       PRES   REMARKS
SUSSEX         CLEAR     32  31  96 W3        29.85F
ANDOVER*         N/A     32  30  92 CALM      29.85F
MORRISTOWN     CLEAR     32  32 100 CALM      29.87S FOG
NEWARK         PTCLDY    43  41  93 S3        29.88S
TETERBORO      CLEAR     41  37  86 CALM      29.87S
CALDWELL       CLEAR     36  34  92 CALM      29.88S
SOMERVILLE     CLEAR     33  30  88 CALM      29.86S
ALLAIRE*       LGT RAIN  45  44  97 SW5       29.90S VSB 1/4
TOMS RIVER*    LGT RAIN  46  46 100 W3        29.91R VSB 1/2

$$
PAZ043-044-047-054-055-060>062-066>071-231100-
EASTERN PENNSYLVANIA

CITY           SKY/WX    TMP DP  RH WIND       PRES   REMARKS
PHILADELPHIA   FOG       49  48  97 CALM      29.90S VSB 1/4
NORTH PHILA    FOG       49  48  97 SW5       29.90S VSB 1/4
BLUE BELL*     CLOUDY    45  45 100 S3        29.88R VSB 1/4
DOYLESTOWN     PTCLDY    39  37  92 S3        29.86S
QUAKERTOWN*    CLEAR     32  32 100 CALM      29.87S
PERKASIE*      FAIR      36  36 100 CALM      29.88R FOG
POTTSTOWN      FOG       42  42 100 CALM      29.89R VSB 1/4
LANCASTER      FOG       40  40 100 E3        29.86S VSB 1/4
COATESVILLE    FOG       46  46 100 CALM      29.88S VSB<1/4
READING        CLEAR     37  36  96 CALM      29.86R
ALLENTOWN      CLEAR     35  31  85 N5        29.86S FOG     WCI  31
MOUNT POCONO   CLEAR     39  38  96 W5        29.83F
HAZLETON       CLEAR     41  36  81 CALM      29.86R
LEHIGHTON      FAIR      30  30 100 CALM      29.88R FOG
WILKES BARRE   CLEAR     38  36  92 S3        29.83R FOG

$$
DEZALL-MDZ008-012-015-019-020-231100-
DELAWARE AND EASTERN MARYLAND

CITY           SKY/WX    TMP DP  RH WIND       PRES   REMARKS
WILMINGTON     FOG       47  47 100 CALM      29.89S VSB 1/4
DOVER          CLOUDY    46  46 100 CALM      29.88R FOG
GEORGETOWN     CLOUDY    56  52  86 S6        29.90S
EASTON         CLOUDY    55  51  86 SW5       29.92S
ABERDEEN       FOG       46  46  99 CALM      29.89S VSB 1/4
PATUXENT       CLOUDY    50  49  96 S3        29.89S
OCEAN CITY     CLOUDY    52  48  86 SW7       29.92S
WALLOPS ISLAND CLOUDY    50  50 100 S7        29.93R
CAMBRIDGE      CLOUDY    54  50  87 S6        29.89S
SALISBURY      LGT RAIN  54  53  97 S7        29.91S

$$
PAZ001-021-NYZ056-072-MDZ011-DCZ001-231100-
OTHER NEARBY LOCATIONS

CITY           SKY/WX    TMP DP  RH WIND       PRES   REMARKS
HARRISBURG     PTCLDY    41  41 100 SE3       29.86R
STATE COLLEGE  MOCLDY    43  38  82 CALM      29.83F
WILLIAMSPORT   CLEAR     37  35  92 CALM      29.85R
BINGHAMTON     MOCLDY    46  39  76 SW7       29.80R
NEW YORK CITY  CLEAR     46  41  82 NE3       29.90S
BALTIMORE      MOCLDY    47  46  97 CALM      29.87S
WASHINGTON DC  MOCLDY    54  53  97 S5        29.88S

$$



USA.gov is the U.S. government's official web portal to all federal, state and local government web resources and services.